• en Belgique
  • Liste des pays
  • À 7 jours
  • Température de l'eau
  • Carte satellitaire
  • Carte météo
  • Widgets météo
  • user-avatar
    Se connecter

    Météo par heure à Ansembourg

    Ce jour, 22 Mai, Mardi

    Heure Température Précipitation Vent Pression Humidité
    00:00 +12°C° 0,1 mm 0 m/s 731 mmHg 89%
    01:00 +12°C° 0 mm 0 m/s 731 mmHg 89%
    02:00 +11°C° 0 mm 0 m/s 731 mmHg 90%
    03:00 +11°C° 0 mm 0 m/s 731 mmHg 90%
    04:00 +12°C° 0 mm 0 m/s 731 mmHg 89%
    05:00 +13°C° 0 mm 0 m/s 731 mmHg 88%
    06:00 +15°C° 0 mm 0 m/s 731 mmHg 88%
    07:00 +16°C° 0,1 mm 0 m/s 732 mmHg 83%
    08:00 +20°C° 0,1 mm 1 m/s 732 mmHg 78%
    09:00 +21°C° 0,1 mm 1 m/s 732 mmHg 73%
    10:00 +22°C° 0,4 mm 1 m/s 732 mmHg 70%
    11:00 +22°C° 0,4 mm 1 m/s 732 mmHg 68%
    12:00 +23°C° 0,4 mm 1 m/s 732 mmHg 65%
    13:00 +23°C° 0,4 mm 1 m/s 732 mmHg 67%
    14:00 +23°C° 0,4 mm 2 m/s 732 mmHg 70%
    15:00 +23°C° 0,4 mm 2 m/s 731 mmHg 72%
    16:00 +22°C° 0,5 mm 1 m/s 731 mmHg 77%
    17:00 +21°C° 0,5 mm 1 m/s 732 mmHg 81%
    18:00 +20°C° 0,5 mm 1 m/s 732 mmHg 86%
    19:00 +19°C° 0,5 mm 1 m/s 732 mmHg 87%
    20:00 +16°C° 0,5 mm 1 m/s 732 mmHg 88%
    21:00 +14°C° 0,5 mm 0 m/s 732 mmHg 88%
    22:00 +14°C° 0 mm 0 m/s 733 mmHg 89%
    23:00 +14°C° 0 mm 1 m/s 733 mmHg 89%

    Demain, 23 Mai, Mercredi

    Heure Température Précipitation Vent Pression Humidité
    00:00 +14°C° 0 mm 1 m/s 733 mmHg 90%
    01:00 +12°C° 0 mm 0 m/s 733 mmHg 90%
    02:00 +12°C° 0 mm 0 m/s 733 mmHg 91%
    03:00 +11°C° 0 mm 0 m/s 733 mmHg 91%
    04:00 +12°C° 0 mm 0 m/s 734 mmHg 90%
    05:00 +14°C° 0 mm 0 m/s 734 mmHg 90%
    06:00 +15°C° 0 mm 0 m/s 734 mmHg 89%
    07:00 +16°C° 0,1 mm 0 m/s 735 mmHg 85%
    08:00 +20°C° 0,1 mm 1 m/s 735 mmHg 81%
    09:00 +21°C° 0,1 mm 1 m/s 736 mmHg 77%
    10:00 +22°C° 0,6 mm 1 m/s 736 mmHg 75%
    11:00 +22°C° 0,6 mm 1 m/s 736 mmHg 72%
    12:00 +23°C° 0,6 mm 1 m/s 736 mmHg 70%
    13:00 +23°C° 0,8 mm 1 m/s 735 mmHg 73%
    14:00 +23°C° 0,8 mm 2 m/s 735 mmHg 75%
    15:00 +21°C° 0,8 mm 2 m/s 735 mmHg 77%
    16:00 +21°C° 0,5 mm 2 m/s 735 mmHg 81%
    17:00 +20°C° 0,5 mm 2 m/s 735 mmHg 84%
    18:00 +19°C° 0,5 mm 2 m/s 735 mmHg 88%
    19:00 +18°C° 0,5 mm 2 m/s 736 mmHg 89%
    20:00 +17°C° 0,5 mm 2 m/s 736 mmHg 91%
    21:00 +16°C° 0,5 mm 2 m/s 736 mmHg 93%
    22:00 +16°C° 0,5 mm 2 m/s 736 mmHg 94%
    23:00 +16°C° 0,5 mm 2 m/s 736 mmHg 94%

    Après-demain, 24 Mai, Jeudi

    Heure Température Précipitation Vent Pression Humidité
    00:00 +15°C° 0,5 mm 2 m/s 736 mmHg 95%
    01:00 +15°C° 0,3 mm 2 m/s 736 mmHg 96%
    02:00 +15°C° 0,3 mm 2 m/s 736 mmHg 96%
    03:00 +15°C° 0,3 mm 2 m/s 736 mmHg 96%
    04:00 +15°C° 0,2 mm 2 m/s 736 mmHg 95%
    05:00 +16°C° 0,2 mm 2 m/s 736 mmHg 95%
    06:00 +16°C° 0,2 mm 2 m/s 736 mmHg 94%
    07:00 +17°C° 0,1 mm 2 m/s 737 mmHg 92%
    08:00 +18°C° 0,1 mm 2 m/s 737 mmHg 89%
    09:00 +19°C° 0,1 mm 3 m/s 737 mmHg 86%
    10:00 +20°C° 0,5 mm 2 m/s 737 mmHg 83%
    11:00 +21°C° 0,5 mm 2 m/s 736 mmHg 81%
    12:00 +21°C° 0,5 mm 2 m/s 736 mmHg 79%
    13:00 +21°C° 0,8 mm 2 m/s 736 mmHg 79%
    14:00 +23°C° 0,8 mm 2 m/s 736 mmHg 79%
    15:00 +23°C° 0,8 mm 2 m/s 736 mmHg 79%
    16:00 +22°C° 0,5 mm 1 m/s 735 mmHg 82%
    17:00 +22°C° 0,5 mm 1 m/s 735 mmHg 84%
    18:00 +22°C° 0,5 mm 1 m/s 735 mmHg 86%
    19:00 +18°C° 0,1 mm 0 m/s 735 mmHg 87%
    20:00 +17°C° 0,1 mm 0 m/s 735 mmHg 89%
    21:00 +15°C° 0,1 mm 0 m/s 736 mmHg 91%
    22:00 +15°C° 0 mm 0 m/s 735 mmHg 91%
    23:00 +14°C° 0 mm 0 m/s 735 mmHg 92%

    25 Mai, Vendredi

    Heure Température Précipitation Vent Pression Humidité
    00:00 +15°C° 0 mm 1 m/s 735 mmHg 92%
    01:00 +14°C° 0 mm 1 m/s 735 mmHg 93%
    02:00 +13°C° 0 mm 0 m/s 735 mmHg 93%
    03:00 +13°C° 0 mm 0 m/s 735 mmHg 94%
    04:00 +15°C° 0 mm 1 m/s 736 mmHg 93%
    05:00 +16°C° 0 mm 1 m/s 736 mmHg 93%
    06:00 +18°C° 0 mm 1 m/s 736 mmHg 92%
    07:00 +20°C° 0 mm 1 m/s 736 mmHg 86%
    08:00 +22°C° 0 mm 1 m/s 736 mmHg 79%
    09:00 +23°C° 0 mm 2 m/s 737 mmHg 72%
    10:00 +24°C° 0,4 mm 2 m/s 736 mmHg 69%
    11:00 +25°C° 0,4 mm 2 m/s 736 mmHg 67%
    12:00 +26°C° 0,4 mm 2 m/s 736 mmHg 64%
    13:00 +26°C° 0,2 mm 2 m/s 736 mmHg 64%
    14:00 +26°C° 0,2 mm 2 m/s 736 mmHg 64%
    15:00 +26°C° 0,2 mm 1 m/s 736 mmHg 65%
    16:00 +25°C° 0,1 mm 1 m/s 735 mmHg 69%
    17:00 +24°C° 0,1 mm 1 m/s 735 mmHg 73%
    18:00 +24°C° 0,1 mm 1 m/s 735 mmHg 78%
    19:00 +22°C° 0,2 mm 1 m/s 735 mmHg 80%
    20:00 +21°C° 0,2 mm 1 m/s 735 mmHg 82%
    21:00 +19°C° 0,2 mm 1 m/s 735 mmHg 84%
    22:00 +19°C° 0,3 mm 1 m/s 735 mmHg 85%
    23:00 +19°C° 0,3 mm 1 m/s 735 mmHg 85%

    26 Mai, Samedi

    Heure Température Précipitation Vent Pression Humidité
    00:00 +17°C° 0,3 mm 2 m/s 735 mmHg 85%
    01:00 +17°C° 0,1 mm 2 m/s 735 mmHg 85%
    02:00 +16°C° 0,1 mm 2 m/s 735 mmHg 85%
    03:00 +16°C° 0,1 mm 2 m/s 735 mmHg 86%
    04:00 +17°C° 0 mm 2 m/s 735 mmHg 86%
    05:00 +18°C° 0 mm 2 m/s 735 mmHg 86%
    06:00 +19°C° 0 mm 2 m/s 735 mmHg 86%
    07:00 +21°C° 0 mm 3 m/s 735 mmHg 82%
    08:00 +22°C° 0 mm 3 m/s 736 mmHg 77%
    09:00 +25°C° 0 mm 4 m/s 736 mmHg 73%
    10:00 +26°C° 0 mm 4 m/s 736 mmHg 70%
    11:00 +27°C° 0 mm 4 m/s 736 mmHg 67%
    12:00 +28°C° 0 mm 4 m/s 736 mmHg 63%
    13:00 +29°C° 0 mm 4 m/s 736 mmHg 64%
    14:00 +29°C° 0 mm 3 m/s 735 mmHg 64%
    15:00 +29°C° 0 mm 3 m/s 735 mmHg 65%
    16:00 +28°C° 0,2 mm 3 m/s 735 mmHg 69%
    17:00 +27°C° 0,2 mm 2 m/s 735 mmHg 74%
    18:00 +26°C° 0,2 mm 2 m/s 735 mmHg 79%
    19:00 +25°C° 0 mm 2 m/s 735 mmHg 80%
    20:00 +23°C° 0 mm 2 m/s 735 mmHg 81%
    21:00 +21°C° 0 mm 3 m/s 736 mmHg 82%
    22:00 +21°C° 0 mm 3 m/s 736 mmHg 83%
    23:00 +20°C° 0 mm 3 m/s 736 mmHg 84%

    27 Mai, Dimanche

    Heure Température Précipitation Vent Pression Humidité
    00:00 +20°C° 0 mm 3 m/s 736 mmHg 86%
    01:00 +19°C° 0 mm 2 m/s 736 mmHg 87%
    02:00 +19°C° 0 mm 2 m/s 736 mmHg 89%
    03:00 +18°C° 0 mm 2 m/s 735 mmHg 91%
    04:00 +19°C° 0 mm 2 m/s 736 mmHg 89%
    05:00 +20°C° 0 mm 2 m/s 736 mmHg 87%
    06:00 +21°C° 0 mm 2 m/s 736 mmHg 85%
    07:00 +23°C° 0 mm 2 m/s 736 mmHg 80%
    08:00 +25°C° 0 mm 3 m/s 737 mmHg 76%
    09:00 +27°C° 0 mm 3 m/s 737 mmHg 71%
    10:00 +28°C° 0 mm 3 m/s 737 mmHg 68%
    11:00 +29°C° 0 mm 3 m/s 737 mmHg 65%
    12:00 +30°C° 0 mm 3 m/s 737 mmHg 61%
    13:00 +30°C° 0 mm 3 m/s 736 mmHg 63%
    14:00 +30°C° 0 mm 3 m/s 736 mmHg 64%
    15:00 +30°C° 0 mm 2 m/s 736 mmHg 66%
    16:00 +29°C° 0 mm 2 m/s 736 mmHg 70%
    17:00 +28°C° 0 mm 2 m/s 736 mmHg 75%
    18:00 +27°C° 0 mm 2 m/s 735 mmHg 79%
    19:00 +25°C° 0 mm 2 m/s 735 mmHg 81%
    20:00 +24°C° 0 mm 2 m/s 736 mmHg 83%
    21:00 +21°C° 0 mm 2 m/s 736 mmHg 85%
    22:00 +21°C° 0 mm 2 m/s 736 mmHg 86%
    23:00 +20°C° 0 mm 2 m/s 736 mmHg 87%
    Voir plus